STARLINK-11547 [DTC] (62587 NORAD) Tracking and Keplerian Element Data

This shows tracking and keplerian element data for the satellite.

Feedback or suggestion? Click here.




ElementValue
Catalog62587
NameSTARLINK-11547 [DTC]
Epoch Orbit454
Epoch Day35.00097579
Epoch Year2025
RAAN11.7793
Inclination42.9986
Eccentricity5.04E-05
Argument of Perigee282.3487
Mean Anonmoly77.7326
Mean Motion15.77894915
Decay Rate1.41E-05
L11 62587U 25008A 25035.00097579 .00001410 00000+0 10939-4 0 9996
L22 62587 42.9986 11.7793 0000504 282.3487 77.7326 15.77894915 4540



Live tracking and technical data element details for STARLINK-11547 [DTC] (NORAD 62587). STARLINK-11547 [DTC] can be tracked NOW for your location showing map with azimuth and elevation plus other details from your city location.







IsCatalogInMostPopularTable: catalog: 62587, numindb: 17
Update: records affected: 1



GetName: 62587 STARLINK-11547 [DTC]

Hit Count: updated at: Mon, 19 May 2025 02:38:32 GMT